This is the latest recevied weather packets stored in our database for station/object S51UL-6. If no packets are shown the sender has not sent any weather packets the latest 10 day(s).
| Time | Temp. | Humidity | Pressure | Rain* | Wind** | Luminosity | Snow |
|---|---|---|---|---|---|---|---|
| 1777806843 | 25.56° C | 37% | 1018.9 hPa | 0 mm | - | - | - |
| 1777806244 | 25.56° C | 37% | 1018.9 hPa | 0 mm | - | - | - |
| 1777805945 | 26.11° C | 38% | 1019 hPa | 0 mm | - | - | - |
| 1777804146 | 24.44° C | 42% | 1019.5 hPa | 0 mm | - | - | - |
| 1777804144 | 24.44° C | 42% | 1019.5 hPa | 0 mm | - | - | - |
| 1777803844 | 24.44° C | 43% | 1019.6 hPa | 0 mm | - | - | - |
| 1777802945 | 23.33° C | 43% | 1019.7 hPa | 0 mm | - | - | - |
| 1777802046 | 23.33° C | 43% | 1019.9 hPa | 0 mm | - | - | - |
| 1777801446 | 22.78° C | 46% | 1019.9 hPa | 0 mm | - | - | - |
| 1777800845 | 22.78° C | 46% | 1020 hPa | 0 mm | - | - | - |
| 1777800545 | 22.78° C | 46% | 1020.1 hPa | 0 mm | - | - | - |
| 1777800246 | 22.78° C | 45% | 1020 hPa | 0 mm | - | - | - |
| 1777799645 | 22.78° C | 47% | 1020.1 hPa | 0 mm | - | - | - |
| 1777799046 | 22.78° C | 48% | 1020.1 hPa | 0 mm | - | - | - |
| 1777798745 | 22.78° C | 48% | 1020.2 hPa | 0 mm | - | - | - |
| 1777798445 | 22.78° C | 48% | 1020.2 hPa | 0 mm | - | - | - |
| 1777798147 | 22.22° C | 50% | 1020.2 hPa | 0 mm | - | - | - |
| 1777797546 | 22.22° C | 52% | 1020.2 hPa | 0 mm | - | - | - |
| 1777797246 | 21.67° C | 52% | 1020.3 hPa | 0 mm | - | - | - |
| 1777796946 | 21.67° C | 53% | 1020.3 hPa | 0 mm | - | - | - |
| 1777796046 | 20.56° C | 55% | 1020.3 hPa | 0 mm | - | - | - |
| 1777795746 | 20° C | 53% | 1020.5 hPa | 0 mm | - | - | - |
| 1777795446 | 20° C | 55% | 1020.2 hPa | 0 mm | - | - | - |
| 1777794546 | 19.44° C | 61% | 1020.4 hPa | 0 mm | - | - | - |
| 1777794247 | 18.89° C | 65% | 1020.5 hPa | 0 mm | - | - | - |
* Rain latest hour (hover to see other rain measurements)
** Current wind speed in m/s (hover to see current wind gust speed)